Weather in Voznesenye

Russia / Ivanovo Oblast     56°35′31″N   41°01′10″E
temp.,
°C
wind,
m/s
gust,
m/s
humid.,
%
clouds,
%
prec.,
mm/h
press.,
hPa
HPBL,
m
23 october, sat
sat2300:00+6wsw613695 0.0 1000778
03:00+5sw61374100 0.0 1002745
06:00+5sw61377100 0.0 1002706
09:00+6sw5117477 0.0 10021035
12:00+7sw71170100 0.1 10041300
15:00+8sw5106397 0.1 10041384
18:00+6sw5117177 0.2 1005606
21:00+5wsw4107979 0.3 1006900
24 october, sun
sun2400:00+4wsw410865 0.1 1007494
03:00+2wsw4109421 0.1 1008325
06:00+3sw3888100 0.0 1008379
09:00+3sw3896100 0.1 1009714
12:00+4wsw3696100 0.6 1010695
15:00+3wnw51096100 0.9 1011607
18:00+1nw51196100 0.6 1014800
21:00+1nnw7118197 0.7 10171053
25 october, mon
mon2500:00−1nnw613815 0.0 1020662
03:00−1nnw511865 0.0 1022542
06:00−2nw410865 0.0 1025413
09:000nw477845 0.0 1027395
12:00+2wnw345799 0.0 1027794
15:00+2wsw4660100 0.0 1026799
18:00+1sw41070100 0.0 1026504
21:00+1sw5136699 0.0 1024517
26 october, tue
tue2600:00+1sw61374100 0.0 1023515
03:000wsw5138192 0.0 1022456
06:000wsw513865 0.0 1021435
09:00+1wsw5128338 0.0 1021430
12:00+5wsw51167100 0.0 1020584
15:00+5wsw51168100 0.0 1019605
18:00+3sw51275100 0.0 1019415
21:00+3sw5127898 0.0 1019398
27 october, wed
wed2700:00+2sw41281100 0.0 1018360
03:00+1sw41183100 0.0 1017333
06:00+1sw51284100 0.0 1016376
09:00+3sw51375100 0.0 1015502
12:00+5sw61365100 0.0 1013642
15:00+6sw61265100 0.0 1011803
18:00+3wsw51194100 0.6 1012745
21:00+3wsw51194100 2.0 1012565